Regional Weather Roundup
Issued by NWS

Home | Current Version | Previous Version | Graphics & Text | Print | Product List | Glossary On
Versions: 1 2 3 4 5 6 7 8 9 10 11 12 13 14 15 16 17 18 19 20 21 22 23 24 25 26 27 28 29 30 31 32 33 34 35 36 37 38 39 40 41 42 43 44 45 46 47 48 49 50
114
ASUS44 KJAN 221710
RWRMS

MISSISSIPPI HOURLY WEATHER ROUNDUP
NATIONAL WEATHER SERVICE JACKSON MS
1100 AM CST MON DEC 22 2014

NOTE: "FAIR: INDICATES FEW OR NO CLOUDS BELOW 12,000 FEET WITH NO
SIGNIFICANT WEATHER AND/OR OBSTRUCTIONS TO VISIBILITY.

MSZ001>002-007>008-010>013-018>021-025>028-034>036-221800-
NORTHWEST MISSISSIPPI

CITY           SKY/WX    TMP DP  RH WIND       PRES   REMARKS
CLARKSDALE     CLOUDY    55  55 100 S13       29.78F
CLEVELAND      CLOUDY    55  55  98 S14       29.77F
GREENWOOD      CLOUDY    58  53  84 S12       29.81F
GREENVILLE     CLOUDY    56  53  90 S13       29.76F FOG
GRENADA        CLOUDY    54  52  94 E5        29.82F FOG
OLIVE BRANCH   CLOUDY    52  52 100 S12       29.79F FOG
OXFORD         CLOUDY    50  50 100 SE9       29.82F FOG
TUNICA         CLOUDY    54  52  94 S14       29.78F
$$

MSZ003>006-009-014>017-022>024-029>033-037>039-221800-
NORTHEAST MISSISSIPPI

CITY           SKY/WX    TMP DP  RH WIND       PRES   REMARKS
COLUMBUS AFB   NOT AVBL
CORINTH        DRIZZLE   54  50  87 SE10      29.82S
GOLDN TRIANGLE CLOUDY    54  50  87 SE9       29.84F FOG
STARKVILLE     CLOUDY    52  50  93 SE9       29.84F FOG
TUPELO         CLOUDY    53  50  89 S9        29.84F
$$

MSZ040-058-221800-
CENTRAL MISSISSIPPI

CITY           SKY/WX    TMP DP  RH WIND       PRES   REMARKS
JACKSON INTL   CLOUDY    59  55  87 SE7       29.80F
JACKSON HAWKNS CLOUDY    58  55  90 SE6       29.80F
MERIDIAN KEY   CLOUDY    56  55  97 S5        29.83F FOG
MERIDIAN NAS   FOG       54  53  97 SE6       29.85F VSB 1/2
RAYMOND        CLOUDY    59  54  82 SE6       29.79F
VICKSBURG      CLOUDY    59  56  89 S7        29.78F
$$

MSZ059>079-221800-
SOUTH MISSISSIPPI

CITY           SKY/WX    TMP DP  RH WIND       PRES   REMARKS
HATTIESBURG    LGT RAIN  59  59 100 E5        29.83F
MCCOMB         CLOUDY    61  60  97 SE7       29.79F FOG
NATCHEZ        CLOUDY    61  57  88 S8        29.78F
PINE BELT      CLOUDY    57  55  94 SE8       29.83F
$$

MSZ080>082-221800-
COASTAL MISSISSIPPI

CITY           SKY/WX    TMP DP  RH WIND       PRES   REMARKS
BAY ST LOUIS   CLOUDY    63  61  94 E7        29.82F FOG
BILOXI         NOT AVBL
PASCAGOULA     PTSUNNY   66  62  87 SE10      29.83F
GULFPORT       TSTM      63  61  93 SE3       29.83F FOG
$$



USA.gov is the U.S. government's official web portal to all federal, state and local government web resources and services.